Temperature
26 29 28 27 27 27 28 27 28 28 28 28 28 27 25 23 23 22 21 21 20 19 18 18 18 18 18 19 20 21 22 23 22 22 20 18 18 18 18 18 19 18 19 19
27 27 27 27 27 28 28 28 28 28 28 28 28 27 25 23 21 21 21 19 20 20 19 18 18 18 18 18 18 20 20 20 20 21 20 19 19 19 18 18 18 20 20 19
26 26 26 27 27 27 27 27 26 26 27 28 27 27 26 23 21 21 20 20 19 19 19 19 19 18 18 17 18 19 20 20 18 17 17 16 17 17 16 17 19 20 19 19
27 26 27 26 26 26 28 26 26 26 26 27 27 25 27 25 24 22 22 21 21 20 20 20 20 20 19 19 18 18 19 18 17 16 16 15 15 15 16 17 18 20 19 18
26 27 26 26 26 26 27 26 26 25 25 26 27 26 28 26 25 24 23 21 21 20 20 19 19 18 19 19 19 18 18 19 18 17 15 14 14 16 16 17 18 18 18 16
26 26 26 27 26 26 26 25 26 26 26 25 26 26 27 28 25 24 23 22 21 21 20 19 18 18 17 17 17 17 17 17 16 15 15 14 14 15 15 15 17 17 16 15
26 27 27 26 26 26 25 25 25 26 26 26 25 25 27 25 25 24 23 23 22 21 20 19 18 18 17 16 16 16 16 16 15 15 14 15 15 14 14 14 15 14 13 13
25 22 25 25 26 25 25 24 23 23 23 25 24 25 24 24 23 23 22 22 21 21 20 19 18 17 16 16 16 16 15 15 14 15 14 14 14 14 14 13 13 13 14 13
26 25 25 25 25 25 23 28 24 24 23 22 25 25 25 24 23 23 22 22 22 21 20 19 18 17 16 16 15 14 14 14 14 14 14 14 14 14 13 13 13 13 13 13
26 23 26 25 24 24 23 26 24 24 22 22 24 24 25 23 23 24 23 22 22 21 20 19 18 17 16 15 14 15 14 13 14 13 14 14 14 14 13 13 12 12 12 12
25 24 24 25 24 24 24 24 23 22 23 21 21 25 24 24 23 23 23 22 21 20 19 18 17 16 15 14 13 13 13 13 14 13 13 13 12 12 12 12 12 12 12 12
25 24 24 25 25 24 24 23 23 22 22 22 21 22 25 24 24 23 23 22 20 19 18 17 16 15 15 14 13 13 13 12 13 13 12 12 12 12 11 11 12 12 12 12
24 23 22 24 24 23 23 23 23 23 22 21 21 22 25 24 24 23 22 21 20 18 17 17 16 15 14 14 13 13 12 12 12 13 12 12 11 11 11 12 12 12 12 12
22 22 22 22 23 24 23 23 23 22 21 21 22 22 24 24 23 23 22 21 19 18 17 17 16 15 14 14 13 13 12 12 12 12 11 12 12 12 11 12 12 12 12 12
23 22 22 23 23 23 23 23 23 22 21 21 21 22 22 23 23 22 21 20 19 18 18 17 16 15 14 13 13 13 12 12 12 12 12 12 12 12 11 12 12 12 11 11
22 21 21 21 22 23 22 23 23 22 22 22 22 22 23 23 22 21 20 20 19 19 18 17 16 15 14 14 13 13 12 12 12 12 12 12 12 12 12 12 12 11 11 11
22 21 21 22 22 21 21 23 23 22 23 22 22 22 23 22 21 21 20 20 19 19 18 17 16 15 14 14 13 13 13 12 12 12 12 12 12 12 12 12 12 11 12 11
20 20 21 22 21 20 23 23 22 22 22 22 22 22 22 21 20 20 19 18 19 18 17 16 16 15 14 13 13 13 12 13 12 12 12 12 12 12 11 12 12 12 11 11
20 20 22 22 21 21 22 22 22 21 20 22 22 21 21 20 20 21 20 18 18 18 17 16 15 15 14 13 13 13 13 12 12 12 12 12 12 12 12 12 12 12 12 11
19 19 20 21 19 20 21 21 20 20 20 21 20 20 20 20 20 21 20 18 18 17 16 15 15 14 14 13 13 13 12 12 12 12 12 12 12 12 12 12 12 11 12 12
21 20 20 19 19 21 21 20 20 18 19 18 18 19 18 19 19 19 19 18 17 16 16 15 14 13 13 12 12 12 12 12 12 12 11 11 11 11 11 11 11 11 11 10
20 20 20 19 18 17 19 19 17 17 18 18 18 18 18 18 18 19 19 19 16 15 15 16 14 13 12 12 12 11 12 12 12 12 11 11 11 11 11 10 10 10 10 10
20 20 20 19 19 19 18 17 16 15 15 16 16 17 17 18 18 18 19 19 18 16 15 15 14 13 12 12 11 12 12 11 11 11 11 10 11 11 11 10 10 10 10 10
21 20 17 16 17 17 16 16 14 13 13 13 13 14 15 16 17 17 18 18 18 17 15 14 14 13 12 12 11 12 12 11 11 11 10 10 10 10 10 11 10 10 10 10
16 16 14 15 15 13 15 13 13 12 11 11 11 12 13 13 14 15 16 16 17 16 16 15 14 13 13 12 12 11 12 11 11 10 10 10 11 10 10 11 10 10 11 11
11 11 11 11 11 11 10 10 10 10 10 10 11 12 12 12 12 12 12 13 14 15 15 15 14 13 13 12 12 11 11 11 11 11 11 11 11 11 10 10 10 10 10 10
Wind_Speed
3 3 1 3 1 2 2 4 4 1 3 6 3 4 2 3 3 4 4 3 4 5 6 7 8 9 10 10 9 9 9 10 9 5 6 6 7 8 8 9 9 6 3 5
7 2 2 3 4 3 2 4 2 3 1 6 9 9 3 1 2 3 3 3 2 5 7 7 6 6 8 10 12 11 10 7 6 3 3 4 3 3 9 11 9 8 5 6
3 6 3 6 5 4 3 5 6 9 11 13 12 13 10 8 6 4 4 5 3 2 3 5 7 9 10 12 13 12 11 9 6 3 3 3 1 2 9 13 12 10 6 4
2 1 1 2 1 6 7 2 8 12 14 12 8 13 9 12 9 7 6 7 6 4 2 2 6 9 11 11 10 10 10 10 7 5 5 11 12 14 15 10 6 8 13 12
1 4 5 6 3 5 6 5 10 14 15 14 13 10 4 8 9 8 7 5 3 0 3 5 8 10 13 14 14 13 13 13 11 9 12 14 16 15 9 6 7 5 7 12
2 4 6 6 1 2 4 9 14 13 11 11 2 4 5 4 4 6 5 2 2 3 4 6 8 9 12 13 14 15 16 16 15 14 16 18 16 12 9 9 8 6 6 8
4 4 2 4 7 5 5 11 10 6 7 3 4 6 4 5 3 2 3 5 7 7 8 9 10 10 11 14 14 15 15 16 15 13 14 15 16 15 15 12 10 7 6 6
5 2 1 1 5 6 5 7 8 8 10 11 10 6 2 3 2 3 5 8 10 12 12 12 11 10 11 13 15 15 16 15 14 13 12 13 16 16 14 12 8 7 5 4
4 2 3 1 1 4 4 4 6 8 11 10 6 3 3 6 5 6 8 11 12 13 13 13 12 11 12 13 13 12 11 11 12 14 14 12 12 13 12 10 9 6 5 6
5 7 2 4 5 2 3 3 5 4 6 8 10 10 3 5 5 6 10 13 12 11 11 12 11 12 11 9 6 6 8 9 10 15 15 8 6 5 6 10 10 9 6 5
9 6 4 4 7 5 4 5 4 5 8 8 11 7 2 5 11 11 14 16 13 12 11 10 11 11 7 3 2 3 6 8 13 16 15 8 4 4 2 3 5 6 5 5
5 6 10 10 1 3 8 10 8 9 10 11 12 12 9 9 11 14 20 16 12 11 10 10 10 8 5 3 2 2 2 1 6 12 13 8 7 5 4 7 6 7 7 5
3 6 10 10 6 5 8 10 11 12 13 13 16 13 8 12 16 19 18 13 11 10 10 10 8 7 6 5 5 5 3 1 2 6 8 8 7 1 4 6 8 6 7 6
3 10 14 17 16 13 13 14 13 12 14 17 20 21 19 18 17 16 13 10 10 10 11 10 8 7 6 5 5 6 4 2 1 3 7 9 8 7 6 4 6 7 8 9
4 10 15 17 17 16 19 19 18 17 20 22 23 23 21 20 19 16 12 9 9 11 12 11 9 8 7 6 5 5 2 1 1 4 11 11 10 9 9 9 9 9 9 9
4 8 12 16 17 18 21 21 20 19 20 22 24 23 19 16 15 14 12 9 10 12 12 12 10 9 9 8 8 6 2 3 2 5 10 10 11 11 11 9 9 11 10 8
7 8 9 9 7 12 11 8 9 11 15 16 18 18 16 19 17 15 13 9 9 10 11 11 10 9 10 9 8 7 3 1 1 5 9 8 9 12 10 8 10 11 10 8
6 6 6 8 9 8 3 5 8 12 14 15 16 14 14 14 13 12 10 10 8 9 10 10 10 9 9 9 9 7 6 3 4 7 8 7 10 15 11 7 7 8 8 7
6 6 5 5 10 12 10 5 7 12 17 12 9 10 13 15 15 13 7 11 8 6 7 9 10 9 9 10 9 8 8 5 3 4 5 5 10 14 14 13 9 7 6 5
5 6 8 10 10 6 5 9 9 12 9 12 19 22 22 21 17 13 7 7 10 7 7 8 9 9 10 10 9 9 10 9 8 6 5 5 7 11 14 15 13 10 8 6
6 9 10 11 11 8 8 10 14 12 15 26 26 25 24 22 20 18 16 10 11 10 9 10 10 10 10 10 10 10 11 11 10 8 7 7 7 9 11 13 12 11 9 8
7 7 7 6 8 6 13 17 14 17 21 24 24 24 23 22 21 20 18 14 14 13 11 12 12 12 11 11 11 12 12 10 10 9 10 8 7 8 10 11 11 12 11 11
4 6 9 9 11 16 19 17 18 20 22 24 26 26 24 23 22 21 20 17 15 17 15 14 15 14 13 13 12 13 11 10 11 12 11 9 9 8 9 10 10 11 12 12
12 7 5 9 12 11 14 15 18 20 22 25 26 26 24 22 23 23 22 19 16 15 17 16 16 17 15 15 15 14 12 13 14 13 12 11 9 9 8 8 9 9 12 13
10 7 6 9 10 14 12 19 20 18 19 21 25 23 22 22 22 23 21 20 18 15 15 17 18 19 18 16 16 15 14 14 14 13 12 12 11 10 8 6 5 7 5 7
7 5 5 5 9 9 9 15 22 24 23 23 24 25 21 19 20 22 22 21 21 18 15 17 19 20 20 19 18 17 16 15 14 13 13 12 12 11 10 8 5 8 6 10
Wind_Direction
200 249 13 47 4 14 237 239 249 143 14 313 297 297 356 14 36 69 70 91 140 151 156 158 168 176 180 189 191 191 194 183 181 192 235 239 239 252 248 221 212 216 237 228
205 90 74 141 142 156 191 236 264 246 190 301 294 282 176 158 91 53 74 111 162 184 194 200 218 246 261 267 271 280 285 289 268 221 224 219 192 232 250 241 221 207 224 259
348 56 120 170 166 233 237 297 315 303 304 280 269 266 184 173 145 122 95 100 118 176 245 255 265 276 277 277 282 291 295 305 313 329 339 316 99 193 246 241 230 215 193 240
233 95 215 235 245 300 296 347 295 292 294 297 298 287 243 173 164 147 132 115 106 99 73 356 323 314 313 312 309 306 305 297 279 256 231 239 241 242 246 244 225 210 188 172
226 238 261 267 288 296 322 326 289 288 285 286 266 259 249 167 196 172 163 147 132 84 311 317 315 314 315 316 316 315 312 308 301 275 255 253 253 253 245 232 214 203 209 199
306 264 270 287 219 276 306 284 277 262 266 263 254 285 268 147 191 173 176 188 275 303 301 303 301 300 303 304 304 306 305 303 299 282 264 254 251 249 216 195 197 194 192 186
269 229 217 245 246 205 292 310 300 258 246 293 63 289 288 99 150 202 271 292 296 297 296 297 301 303 303 303 299 292 288 289 289 279 262 248 236 218 214 215 214 198 193 190
327 324 41 261 284 315 347 319 318 313 305 311 297 275 50 117 194 246 276 286 288 288 286 289 297 302 303 304 301 295 286 286 295 293 274 261 246 233 229 219 201 191 186 142
303 284 141 183 278 302 306 326 331 294 277 276 274 277 258 171 216 243 271 287 295 298 296 293 295 295 297 304 312 325 319 316 310 312 306 279 249 231 211 190 175 174 157 131
295 294 215 147 187 145 315 352 285 278 299 297 300 291 235 181 251 296 320 317 305 298 293 292 293 291 296 306 339 33 57 33 10 354 338 280 203 175 183 183 178 145 145 142
287 284 264 206 247 258 238 234 244 295 290 291 291 296 66 284 285 290 307 315 303 296 298 296 291 291 280 276 90 121 80 61 40 20 23 33 94 112 106 219 162 134 152 162
285 274 271 268 301 282 266 271 268 276 278 264 275 283 296 303 288 282 294 301 293 288 289 291 292 280 239 228 239 221 168 69 59 47 28 48 58 59 195 190 178 165 168 174
308 273 275 263 213 210 236 240 251 272 278 273 269 275 287 295 298 301 302 298 286 278 282 293 289 255 227 245 278 262 238 203 61 73 79 76 87 66 253 172 174 159 150 148
274 270 272 280 295 303 276 266 258 262 270 277 277 289 296 299 313 321 312 300 281 272 283 290 278 245 243 259 286 284 249 181 50 108 150 146 162 190 216 153 129 132 139 131
261 272 277 282 286 282 274 277 277 268 264 271 284 290 292 299 309 316 312 300 279 275 281 284 271 249 245 253 264 271 300 314 271 170 171 181 181 187 150 139 144 145 140 134
271 280 284 282 280 280 279 277 272 267 265 267 272 277 282 305 314 299 297 285 280 285 282 278 268 256 250 249 248 249 262 308 279 173 171 184 170 145 123 128 139 140 136 136
278 281 285 282 301 298 282 269 262 276 275 271 271 283 309 318 309 305 300 279 278 291 285 272 266 259 252 252 246 238 218 214 125 131 140 167 155 119 111 122 130 131 121 127
257 262 273 289 295 274 343 318 287 288 288 291 287 292 308 320 317 297 274 266 284 298 286 269 261 253 249 251 246 230 222 206 155 134 121 134 138 114 112 98 105 115 114 118
222 252 275 276 293 293 304 344 346 313 299 306 331 340 331 328 315 296 241 227 234 275 273 261 254 244 244 246 241 236 232 212 182 141 126 147 152 144 147 151 154 145 133 127
200 246 273 284 293 294 4 37 357 319 299 11 339 322 319 318 304 306 339 250 225 205 221 241 239 232 232 235 238 236 239 227 218 192 177 174 155 155 160 162 163 163 161 150
256 259 262 277 280 285 14 11 338 314 322 332 323 316 313 303 292 299 301 272 242 228 207 215 222 220 222 222 228 237 244 237 227 201 180 177 163 148 148 157 163 164 167 159
280 284 275 274 275 284 358 336 335 316 317 316 313 307 303 298 290 291 291 274 243 239 220 204 211 213 214 214 219 232 236 237 224 195 187 181 171 163 159 164 163 163 168 168
268 288 301 291 290 321 345 345 348 350 337 328 320 312 306 301 296 294 295 288 260 240 229 208 209 212 209 209 214 221 218 212 208 196 190 183 175 166 163 168 168 166 174 175
290 294 273 276 283 337 335 341 359 357 348 341 337 329 319 308 304 300 298 294 281 251 232 215 206 211 209 207 207 214 208 196 204 200 192 185 181 170 171 177 182 185 179 177
329 322 320 283 337 346 337 346 346 346 343 342 337 335 335 330 324 317 310 303 292 272 245 222 211 209 208 203 205 208 207 197 202 199 191 192 188 179 182 187 160 194 191 175
15 13 345 335 335 319 324 347 352 352 348 347 331 326 336 341 341 333 324 318 311 294 259 231 220 212 203 198 201 201 200 199 205 203 201 202 205 189 191 179 146 61 65 96
Height
1518 1514 1511 1512 1512 1512 1511 1512 1510 1507 1509 1508 1506 1509 1514 1514 1513 1512 1514 1514 1515 1516 1517 1517 1517 1518 1518 1517 1516 1516 1517 1516 1516 1516 1517 1517 1517 1522 1521 1517 1516 1516 1516 1515
1514 1514 1516 1515 1515 1512 1511 1511 1509 1508 1508 1508 1505 1505 1510 1514 1514 1514 1513 1515 1515 1515 1516 1516 1516 1517 1516 1516 1513 1511 1511 1511 1512 1510 1510 1510 1508 1509 1516 1513 1509 1507 1508 1507
1514 1516 1516 1514 1514 1514 1512 1514 1514 1514 1507 1503 1504 1500 1502 1511 1513 1515 1514 1514 1515 1515 1515 1515 1515 1514 1512 1510 1507 1504 1502 1503 1503 1501 1501 1503 1500 1500 1506 1502 1495 1493 1493 1493
1515 1517 1515 1514 1514 1515 1511 1512 1515 1513 1512 1505 1504 1511 1493 1500 1507 1512 1514 1514 1515 1515 1514 1513 1512 1510 1508 1506 1502 1498 1496 1497 1496 1495 1493 1496 1495 1495 1494 1490 1483 1483 1485 1485
1516 1515 1515 1516 1515 1516 1512 1513 1513 1511 1509 1507 1499 1505 1489 1494 1500 1506 1511 1513 1513 1513 1512 1511 1509 1507 1505 1501 1498 1494 1491 1490 1488 1487 1488 1489 1489 1488 1485 1480 1477 1478 1479 1480
1516 1516 1515 1513 1515 1516 1515 1513 1508 1505 1506 1509 1500 1504 1491 1487 1496 1502 1507 1509 1511 1511 1510 1509 1507 1505 1502 1499 1495 1491 1488 1485 1483 1481 1481 1481 1481 1480 1479 1477 1477 1475 1475 1477
1516 1512 1513 1515 1513 1514 1514 1516 1515 1504 1503 1500 1503 1506 1492 1496 1500 1502 1505 1507 1508 1509 1509 1507 1505 1502 1500 1497 1493 1489 1487 1483 1480 1477 1475 1475 1475 1475 1476 1476 1476 1474 1474 1474
1520 1531 1515 1515 1515 1516 1517 1522 1527 1531 1523 1509 1505 1502 1497 1499 1503 1504 1505 1506 1506 1506 1505 1504 1502 1499 1497 1494 1490 1486 1484 1481 1478 1475 1472 1470 1470 1470 1471 1473 1472 1473 1473 1473
1514 1517 1513 1516 1516 1517 1520 1512 1519 1522 1517 1521 1498 1496 1494 1498 1502 1503 1503 1501 1501 1501 1501 1500 1499 1497 1494 1491 1487 1482 1479 1477 1474 1470 1467 1464 1463 1462 1465 1468 1470 1474 1475 1475
1512 1521 1510 1513 1516 1518 1519 1516 1525 1514 1521 1520 1504 1499 1492 1496 1496 1496 1497 1497 1497 1496 1496 1495 1494 1492 1489 1487 1484 1477 1474 1473 1470 1465 1459 1458 1459 1459 1462 1466 1470 1473 1475 1477
1514 1520 1515 1513 1512 1512 1514 1514 1516 1519 1515 1522 1521 1496 1488 1491 1492 1493 1493 1492 1492 1491 1490 1489 1488 1486 1484 1483 1480 1476 1474 1473 1470 1463 1459 1457 1460 1461 1463 1468 1473 1473 1476 1479
1513 1515 1516 1507 1507 1509 1510 1511 1512 1521 1516 1513 1517 1509 1487 1488 1488 1489 1488 1488 1489 1488 1486 1485 1483 1481 1480 1480 1478 1476 1474 1473 1468 1464 1461 1462 1466 1467 1471 1473 1476 1475 1476 1478
1516 1517 1520 1511 1511 1511 1509 1505 1508 1508 1510 1512 1512 1501 1483 1485 1485 1483 1483 1483 1485 1484 1482 1480 1479 1477 1477 1477 1476 1475 1474 1471 1466 1462 1463 1469 1471 1472 1475 1475 1475 1475 1475 1476
1519 1517 1519 1519 1508 1503 1505 1503 1505 1510 1509 1505 1498 1491 1483 1482 1481 1480 1480 1481 1481 1481 1479 1477 1475 1475 1475 1475 1474 1474 1473 1470 1466 1464 1465 1465 1469 1471 1472 1474 1475 1476 1476 1476
1516 1515 1510 1506 1502 1501 1501 1501 1501 1503 1502 1503 1495 1491 1485 1481 1479 1479 1478 1478 1478 1477 1475 1473 1473 1472 1473 1472 1473 1472 1471 1468 1466 1465 1465 1465 1465 1468 1473 1478 1479 1477 1475 1476
1514 1515 1511 1508 1502 1497 1495 1492 1491 1491 1490 1489 1488 1484 1478 1477 1477 1477 1475 1474 1473 1472 1471 1471 1470 1469 1470 1470 1471 1470 1468 1467 1465 1466 1466 1466 1465 1468 1474 1477 1478 1478 1477 1478
1513 1512 1510 1503 1501 1502 1495 1483 1484 1485 1481 1480 1480 1476 1473 1475 1474 1472 1471 1470 1468 1467 1467 1467 1467 1467 1467 1467 1468 1468 1467 1467 1465 1465 1466 1466 1465 1468 1473 1476 1477 1477 1477 1480
1513 1515 1509 1503 1504 1505 1487 1481 1482 1484 1480 1477 1475 1474 1475 1473 1471 1468 1467 1466 1465 1464 1463 1464 1464 1465 1465 1465 1465 1465 1465 1466 1467 1466 1465 1466 1467 1468 1471 1473 1475 1477 1478 1480
1512 1510 1503 1503 1500 1493 1481 1480 1483 1485 1482 1475 1475 1477 1477 1474 1470 1462 1460 1460 1460 1461 1461 1460 1460 1461 1461 1462 1462 1462 1462 1463 1464 1464 1464 1466 1466 1466 1468 1471 1474 1477 1479 1481
1512 1511 1508 1502 1507 1500 1485 1484 1487 1487 1482 1479 1481 1478 1474 1470 1465 1459 1459 1459 1456 1454 1455 1456 1456 1456 1456 1457 1458 1459 1460 1460 1461 1462 1464 1466 1466 1466 1467 1470 1473 1477 1480 1481
1504 1503 1502 1502 1501 1489 1485 1488 1489 1493 1485 1481 1478 1474 1472 1468 1463 1459 1456 1455 1453 1451 1449 1450 1451 1452 1452 1452 1453 1454 1456 1456 1458 1459 1461 1462 1463 1465 1466 1470 1472 1475 1477 1478
1504 1500 1497 1497 1501 1504 1491 1488 1493 1492 1484 1479 1475 1471 1467 1463 1458 1454 1451 1449 1448 1446 1444 1444 1446 1446 1447 1447 1448 1449 1450 1452 1454 1455 1457 1459 1460 1463 1465 1468 1470 1472 1474 1477
1501 1499 1496 1498 1496 1490 1489 1490 1490 1488 1483 1478 1473 1467 1462 1457 1453 1449 1445 1442 1441 1440 1439 1437 1439 1440 1441 1442 1443 1445 1446 1448 1450 1452 1454 1456 1458 1460 1463 1465 1468 1470 1472 1475
1492 1493 1498 1498 1492 1489 1492 1490 1489 1487 1483 1479 1473 1465 1457 1452 1448 1444 1440 1436 1434 1432 1431 1430 1430 1433 1435 1437 1438 1441 1443 1444 1447 1449 1451 1454 1456 1458 1460 1463 1465 1468 1470 1473
1501 1497 1500 1496 1495 1496 1492 1494 1490 1484 1479 1475 1471 1466 1458 1450 1443 1439 1435 1431 1428 1425 1424 1423 1422 1424 1427 1430 1433 1436 1438 1441 1443 1445 1448 1451 1454 1455 1458 1460 1463 1465 1468 1470
1512 1511 1510 1506 1506 1504 1498 1491 1490 1483 1477 1471 1468 1462 1454 1448 1440 1436 1432 1428 1424 1419 1416 1416 1415 1415 1418 1422 1425 1429 1433 1436 1439 1442 1445 1448 1451 1453 1455 1457 1459 1461 1464 1467